Regional Weather Roundup
Issued by NWS

Home | Current Version | Previous Version | Text Only | Print | Product List | Glossary On
Versions: 1 2 3 4 5 6 7 8 9 10 11 12 13 14 15 16 17 18 19 20 21 22 23 24 25 26 27 28
000
ASUS44 KJAN 271520
RWRMS

MISSISSIPPI HOURLY WEATHER ROUNDUP
NATIONAL WEATHER SERVICE JACKSON MS
1000 AM CDT TUE SEP 27 2016

NOTE: "FAIR: INDICATES FEW OR NO CLOUDS BELOW 12,000 FEET WITH NO
SIGNIFICANT WEATHER AND/OR OBSTRUCTIONS TO VISIBILITY.

MSZ001>002-007>008-010>013-018>021-025>028-034>036-271600-
NORTHWEST MISSISSIPPI

CITY           SKY/WX    TMP DP  RH WIND       PRES   REMARKS
BATESVILLE     FAIR      71  52  50 N7        30.07R
CLARKSDALE     SUNNY     73  55  53 N9G15     30.07F
CLEVELAND      FAIR      70  55  59 NE10G18   30.06S
GREENWOOD      SUNNY     72  51  47 NE10      30.04R
GREENVILLE     SUNNY     73  53  49 NE14      30.06S
OLIVE BRANCH   MOSUNNY  N/A N/A N/A E10       30.07R
OXFORD         FAIR      68  48  49 NE12      30.08S
TUNICA         SUNNY     72  48  43 N9        30.08S
WINONA         FAIR      71  53  53 NE6       30.04R
$$

MSZ003>006-009-014>017-022>024-029>033-037>039-271600-
NORTHEAST MISSISSIPPI

CITY           SKY/WX    TMP DP  RH WIND       PRES   REMARKS
COLUMBUS AFB   MOSUNNY   71  59  64 VRB6      30.01S
CORINTH        FAIR      70  50  49 N10       30.05S
GOLDN TRIANGLE MOSUNNY   72  55  56 N9        30.01S
STARKVILLE     FAIR      70  57  64 N7        30.04S
TUPELO         MOSUNNY   70  48  45 N12       30.03F
$$

MSZ040-058-271600-
CENTRAL MISSISSIPPI

CITY           SKY/WX    TMP DP  RH WIND       PRES   REMARKS
JACKSON INTL   MOSUNNY   75  63  66 NE9       30.02R
JACKSON HAWKNS SUNNY     74  61  63 VRB5      30.03R
MADISON        FAIR      72  61  68 CALM      30.03R
MERIDIAN KEY   MOSUNNY   76  63  64 N7        30.01R
MERIDIAN NAS   PTSUNNY   74  61  63 NW6       30.01R
VICKSBURG VKS  SUNNY     73  63  68 CALM      30.03R
$$

MSZ059>079-271600-
SOUTH MISSISSIPPI

CITY           SKY/WX    TMP DP  RH WIND       PRES   REMARKS
BROOKHAVEN     FAIR     N/A N/A N/A CALM      30.03S
HATTIESBURG    MOSUNNY   76  69  79 N3        30.00S
LAUREL         FAIR      73  69  89 NW5       30.00R
MCCOMB         SUNNY     75  65  70 N6        30.01R
NATCHEZ        SUNNY     73  63  68 NE3       30.03S
PINE BELT      SUNNY     77  66  69 N3        30.01R
$$

MSZ080>082-271600-
COASTAL MISSISSIPPI

CITY           SKY/WX    TMP DP  RH WIND       PRES   REMARKS
BAY ST LOUIS   MOSUNNY   79  70  73 N6        29.98R
BILOXI         SUNNY     79  74  83 NE7       29.96S
PASCAGOULA     SUNNY     81  76  84 N5        29.96S
GULFPORT       SUNNY     81  73  76 N7        29.96R
$$

LAZ007>009-015>016-023>026-271600-
NORTHEAST LOUISIANA

CITY           SKY/WX    TMP DP  RH WIND       PRES   REMARKS
BASTROP        FAIR      71  56  59 NE7       30.08R
TALLULAH/VBURG SUNNY     73  59  61 NE6       30.04S
$$




USA.gov is the U.S. government's official web portal to all federal, state and local government web resources and services.